• In Deutschland
  • Länderverzeichnis
  • Für 7 Tage
  • Wassertemperatur
  • Satellitenkarten
  • Wetterkarte
  • Widgets
  • user-avatar
    Anmelden

    Stündliche Wetter Brazzaville

    Heute, 21 September, Donnerstag

    Zeit Temperatur Niederschläge Wind Luftdruck Luftfeuchtigkeit
    00:00 +32°C° 0 mm 2 m/S 733 mmHg 49%
    01:00 +28°C° 0 mm 1 m/S 734 mmHg 73%
    02:00 +28°C° 0 mm 1 m/S 734 mmHg 73%
    03:00 +28°C° 0 mm 1 m/S 734 mmHg 74%
    04:00 +28°C° 0 mm 1 m/S 734 mmHg 74%
    05:00 +28°C° 0 mm 2 m/S 734 mmHg 72%
    06:00 +28°C° 0 mm 2 m/S 734 mmHg 70%
    07:00 +29°C° 0 mm 2 m/S 735 mmHg 66%
    08:00 +31°C° 0 mm 2 m/S 735 mmHg 59%
    09:00 +34°C° 0 mm 2 m/S 735 mmHg 52%
    10:00 +36°C° 0 mm 2 m/S 735 mmHg 45%
    11:00 +37°C° 0 mm 2 m/S 734 mmHg 43%
    12:00 +37°C° 0 mm 1 m/S 734 mmHg 40%
    13:00 +35°C° 0 mm 0 m/S 733 mmHg 37%
    14:00 +35°C° 0 mm 0 m/S 732 mmHg 38%
    15:00 +36°C° 0 mm 1 m/S 732 mmHg 39%
    16:00 +35°C° 0 mm 1 m/S 732 mmHg 41%
    17:00 +34°C° 0,2 mm 1 m/S 732 mmHg 44%
    18:00 +33°C° 0,2 mm 1 m/S 732 mmHg 48%
    19:00 +32°C° 0,2 mm 2 m/S 732 mmHg 51%
    20:00 +31°C° 0,5 mm 2 m/S 733 mmHg 56%
    21:00 +30°C° 0,5 mm 2 m/S 733 mmHg 61%
    22:00 +29°C° 0,5 mm 2 m/S 733 mmHg 65%
    23:00 +29°C° 0,4 mm 3 m/S 733 mmHg 68%

    Morgen, 22 September, Freitag

    Zeit Temperatur Niederschläge Wind Luftdruck Luftfeuchtigkeit
    00:00 +28°C° 0,4 mm 3 m/S 733 mmHg 70%
    01:00 +28°C° 0,4 mm 3 m/S 733 mmHg 72%
    02:00 +27°C° 0,1 mm 3 m/S 733 mmHg 74%
    03:00 +27°C° 0,1 mm 3 m/S 734 mmHg 76%
    04:00 +26°C° 0,1 mm 3 m/S 734 mmHg 78%
    05:00 +26°C° 0,5 mm 2 m/S 734 mmHg 78%
    06:00 +26°C° 0,5 mm 2 m/S 735 mmHg 78%
    07:00 +26°C° 0,5 mm 2 m/S 735 mmHg 77%
    08:00 +27°C° 2,3 mm 2 m/S 735 mmHg 76%
    09:00 +27°C° 2,3 mm 2 m/S 736 mmHg 74%
    10:00 +28°C° 2,3 mm 1 m/S 736 mmHg 73%
    11:00 +29°C° 0,4 mm 2 m/S 735 mmHg 70%
    12:00 +30°C° 0,4 mm 2 m/S 735 mmHg 66%
    13:00 +31°C° 0,4 mm 2 m/S 734 mmHg 63%
    14:00 +31°C° 0 mm 2 m/S 733 mmHg 59%
    15:00 +32°C° 0 mm 2 m/S 733 mmHg 56%
    16:00 +34°C° 0 mm 2 m/S 732 mmHg 52%
    17:00 +31°C° 0 mm 2 m/S 732 mmHg 57%
    18:00 +30°C° 0 mm 2 m/S 732 mmHg 62%
    19:00 +29°C° 0 mm 2 m/S 732 mmHg 67%
    20:00 +28°C° 0,2 mm 2 m/S 733 mmHg 68%
    21:00 +28°C° 0,2 mm 1 m/S 734 mmHg 70%
    22:00 +27°C° 0,2 mm 1 m/S 735 mmHg 72%
    23:00 +27°C° 0,2 mm 1 m/S 735 mmHg 73%

    übermorgen, 23 September, Samstag

    Zeit Temperatur Niederschläge Wind Luftdruck Luftfeuchtigkeit
    00:00 +27°C° 0,2 mm 1 m/S 735 mmHg 75%
    01:00 +27°C° 0,2 mm 2 m/S 735 mmHg 76%
    02:00 +27°C° 0 mm 2 m/S 734 mmHg 77%
    03:00 +26°C° 0 mm 2 m/S 734 mmHg 79%
    04:00 +26°C° 0 mm 2 m/S 734 mmHg 80%
    05:00 +26°C° 0 mm 2 m/S 734 mmHg 80%
    06:00 +26°C° 0 mm 2 m/S 735 mmHg 79%
    07:00 +26°C° 0 mm 3 m/S 735 mmHg 79%
    08:00 +28°C° 0 mm 3 m/S 735 mmHg 73%
    09:00 +29°C° 0 mm 3 m/S 736 mmHg 67%
    10:00 +31°C° 0 mm 3 m/S 736 mmHg 61%
    11:00 +33°C° 0 mm 3 m/S 735 mmHg 55%
    12:00 +35°C° 0 mm 3 m/S 734 mmHg 48%
    13:00 +37°C° 0 mm 3 m/S 733 mmHg 42%
    14:00 +37°C° 0 mm 2 m/S 732 mmHg 40%
    15:00 +37°C° 0 mm 2 m/S 732 mmHg 38%
    16:00 +38°C° 0 mm 2 m/S 731 mmHg 37%
    17:00 +36°C° 0,1 mm 2 m/S 732 mmHg 40%
    18:00 +34°C° 0,1 mm 1 m/S 732 mmHg 44%
    19:00 +32°C° 0,1 mm 1 m/S 733 mmHg 48%
    20:00 +32°C° 0,2 mm 2 m/S 733 mmHg 52%
    21:00 +31°C° 0,2 mm 2 m/S 734 mmHg 56%
    22:00 +30°C° 0,2 mm 2 m/S 734 mmHg 60%
    23:00 +29°C° 0 mm 2 m/S 734 mmHg 63%

    24 September, Sonntag

    Zeit Temperatur Niederschläge Wind Luftdruck Luftfeuchtigkeit
    00:00 +29°C° 0 mm 2 m/S 734 mmHg 65%
    01:00 +28°C° 0 mm 3 m/S 734 mmHg 68%
    02:00 +28°C° 0,1 mm 2 m/S 734 mmHg 71%
    03:00 +27°C° 0,1 mm 2 m/S 734 mmHg 73%
    04:00 +26°C° 0,1 mm 2 m/S 734 mmHg 76%
    05:00 +26°C° 0,1 mm 3 m/S 735 mmHg 75%
    06:00 +26°C° 0,1 mm 3 m/S 735 mmHg 75%
    07:00 +27°C° 0,1 mm 3 m/S 736 mmHg 75%
    08:00 +28°C° 0 mm 3 m/S 736 mmHg 67%
    09:00 +30°C° 0 mm 3 m/S 736 mmHg 59%
    10:00 +33°C° 0 mm 3 m/S 737 mmHg 51%
    11:00 +35°C° 0 mm 3 m/S 735 mmHg 47%
    12:00 +36°C° 0 mm 3 m/S 734 mmHg 43%
    13:00 +37°C° 0 mm 4 m/S 733 mmHg 39%
    14:00 +37°C° 0 mm 3 m/S 733 mmHg 39%
    15:00 +37°C° 0 mm 3 m/S 732 mmHg 39%
    16:00 +37°C° 0 mm 3 m/S 731 mmHg 39%
    17:00 +36°C° 0 mm 3 m/S 732 mmHg 42%
    18:00 +34°C° 0 mm 3 m/S 733 mmHg 45%
    19:00 +32°C° 0 mm 2 m/S 733 mmHg 48%
    20:00 +31°C° 0 mm 3 m/S 733 mmHg 52%
    21:00 +30°C° 0 mm 3 m/S 734 mmHg 55%
    22:00 +29°C° 0 mm 3 m/S 734 mmHg 59%
    23:00 +29°C° 0 mm 3 m/S 734 mmHg 61%

    25 September, Montag

    Zeit Temperatur Niederschläge Wind Luftdruck Luftfeuchtigkeit
    00:00 +28°C° 0 mm 3 m/S 734 mmHg 63%
    01:00 +28°C° 0 mm 3 m/S 734 mmHg 66%
    02:00 +27°C° 0,2 mm 2 m/S 734 mmHg 68%
    03:00 +27°C° 0,2 mm 2 m/S 734 mmHg 70%
    04:00 +27°C° 0,2 mm 2 m/S 734 mmHg 72%
    05:00 +27°C° 0,1 mm 2 m/S 735 mmHg 72%
    06:00 +27°C° 0,1 mm 2 m/S 735 mmHg 72%
    07:00 +27°C° 0,1 mm 2 m/S 736 mmHg 72%
    08:00 +27°C° 0 mm 2 m/S 736 mmHg 69%
    09:00 +28°C° 0 mm 2 m/S 736 mmHg 65%
    10:00 +29°C° 0 mm 2 m/S 736 mmHg 61%
    11:00 +31°C° 0 mm 3 m/S 735 mmHg 56%
    12:00 +34°C° 0 mm 3 m/S 734 mmHg 50%
    13:00 +35°C° 0 mm 3 m/S 733 mmHg 44%
    14:00 +35°C° 0 mm 3 m/S 733 mmHg 44%
    15:00 +35°C° 0 mm 3 m/S 732 mmHg 44%
    16:00 +35°C° 0 mm 3 m/S 732 mmHg 44%
    17:00 +34°C° 0 mm 3 m/S 732 mmHg 48%
    18:00 +31°C° 0 mm 2 m/S 732 mmHg 52%
    19:00 +30°C° 0 mm 2 m/S 733 mmHg 56%
    20:00 +29°C° 0 mm 2 m/S 733 mmHg 58%
    21:00 +29°C° 0 mm 2 m/S 733 mmHg 61%
    22:00 +28°C° 0 mm 2 m/S 734 mmHg 63%
    23:00 +28°C° 0 mm 2 m/S 734 mmHg 65%

    26 September, Dienstag

    Zeit Temperatur Niederschläge Wind Luftdruck Luftfeuchtigkeit
    00:00 +27°C° 0 mm 2 m/S 733 mmHg 67%
    01:00 +27°C° 0 mm 2 m/S 733 mmHg 69%
    02:00 +26°C° 0 mm 2 m/S 733 mmHg 71%
    03:00 +26°C° 0 mm 2 m/S 733 mmHg 73%
    04:00 +26°C° 0 mm 2 m/S 733 mmHg 76%
    05:00 +26°C° 0,1 mm 2 m/S 734 mmHg 75%
    06:00 +26°C° 0,1 mm 2 m/S 734 mmHg 75%
    07:00 +26°C° 0,1 mm 2 m/S 735 mmHg 74%
    08:00 +28°C° 0 mm 3 m/S 735 mmHg 65%
    09:00 +30°C° 0 mm 3 m/S 735 mmHg 57%
    10:00 +33°C° 0 mm 3 m/S 735 mmHg 48%
    11:00 +35°C° 0 mm 3 m/S 734 mmHg 44%
    12:00 +36°C° 0 mm 3 m/S 733 mmHg 40%
    13:00 +38°C° 0 mm 3 m/S 732 mmHg 36%
    14:00 +37°C° 0 mm 3 m/S 731 mmHg 38%
    15:00 +36°C° 0 mm 3 m/S 731 mmHg 40%
    16:00 +35°C° 0 mm 3 m/S 731 mmHg 42%
    17:00 +34°C° 0 mm 3 m/S 731 mmHg 45%
    18:00 +32°C° 0 mm 2 m/S 732 mmHg 48%
    19:00 +31°C° 0 mm 2 m/S 732 mmHg 52%
    20:00 +31°C° 0 mm 2 m/S 733 mmHg 54%
    21:00 +30°C° 0 mm 2 m/S 733 mmHg 56%
    22:00 +29°C° 0 mm 3 m/S 734 mmHg 58%
    23:00 +29°C° 0 mm 3 m/S 733 mmHg 61%
    Mehr zeigen